Location: Akgöl Batakl???
(38.9482°N, 31.8837°E)
Time: 12:05:07
(UTC+00:00)

Iridium 4 Rocket - Pass Details

Date: 08 May 2026
Orbit: 580 x 885 km, 86.9° (Epoch: 5 June)

Event Time Altitude Azimuth Distance (km) Brightness Sun altitude
Exits shadow 22:46:27 52° 41° (NE) 1,028 4.3 -32.2°
Drops below altitude 10° 22:51:00 10° 9° (N) 2,505 7.0 -31.9°
Sets 22:53:31 0° 6° (N) 3,470 8.0 -31.8°
